{"data":{"norad_id":82560,"epoch":"2026-09-18T16:05:44.774304Z","epoch_age_seconds":176358,"freshness":"STALE","line1":"1 82560U          26261.67065711  .00000835  00000+0  70236-3 0  9997","line2":"2 82560 100.0097 230.4319 0010165 297.8600 239.4951 13.91286583650782","mean_motion":13.91286583,"eccentricity":0.0010165,"inclination_deg":100.0097,"raan_deg":230.4319,"arg_perigee_deg":297.86,"mean_anomaly_deg":239.4951,"bstar":0.00070236,"rev_number":65078,"period_min":103.50132155339,"perigee_km":916.70279248608,"apogee_km":931.5482922347,"semimajor_km":7302.2625423604,"source":"CELESTRAK","updated_at":"2026-09-20T09:00:32.436544Z"}}